Overview Statistics Trail Chart Weather Telemetry Raw packets
 

This is the latest recevied weather packets stored in our database for station/object 4S6DRJ-13. If no packets are shown the sender has not sent any weather packets the latest 10 day(s).

<< 301 302 303 304 305 306 307 >>
Time Temp. Humidity Pressure Rain* Wind** Luminosity Snow
1788023234 28.33° C 84% 1011.1 hPa 0 mm 0.89 m/s, 220° 0 W/m² -
1788023173 28.33° C 84% 1011.3 hPa 0 mm 1.34 m/s, 205° 0 W/m² -
1788023112 28.33° C 84% 1011.1 hPa 0 mm 0.45 m/s, 228° 0 W/m² -
1788023051 28.33° C 84% 1011 hPa 0 mm 0.45 m/s, 235° 0 W/m² -
1788022989 28.33° C 84% 1011.2 hPa 0 mm 0.89 m/s, 230° 0 W/m² -
1788022928 28.33° C 84% 1011 hPa 0 mm 1.34 m/s, 252° 0 W/m² -
1788022868 28.33° C 84% 1011.1 hPa 0 mm 0.89 m/s, 258° 0 W/m² -
1788022807 28.33° C 84% 1011.1 hPa 0 mm 0.89 m/s, 209° 0 W/m² -
1788022746 28.33° C 84% 1011.3 hPa 0 mm 0.45 m/s, 214° 0 W/m² -
1788022684 28.33° C 84% 1011.3 hPa 0 mm 0.89 m/s, 232° 0 W/m² -
1788022623 28.33° C 84% 1011.1 hPa 0 mm 0 m/s 0 W/m² -
1788022562 28.33° C 84% 1011.4 hPa 0 mm 0.89 m/s, 252° 0 W/m² -
1788022501 28.33° C 84% 1011.1 hPa 0 mm 1.79 m/s, 233° 0 W/m² -
1788022441 28.33° C 84% 1011.2 hPa 0 mm 0.89 m/s, 215° 0 W/m² -
1788022380 28.33° C 84% 1011.3 hPa 0 mm 0.89 m/s, 229° 0 W/m² -
1788022318 28.33° C 84% 1011.3 hPa 0 mm 0.45 m/s, 103° 0 W/m² -
1788022258 28.33° C 84% 1011.2 hPa 0 mm 0.45 m/s, 256° 0 W/m² -
1788022198 28.33° C 83% 1011.2 hPa 0 mm 0.45 m/s, 230° 0 W/m² -
1788022135 28.33° C 83% 1011.5 hPa 0 mm 0.89 m/s, 212° 0 W/m² -
1788022075 28.33° C 83% 1011.5 hPa 0 mm 0 m/s 0 W/m² -
1788022013 28.33° C 83% 1011.4 hPa 0 mm 0 m/s 0 W/m² -
1788021952 28.33° C 83% 1011.4 hPa 0 mm 0.45 m/s, 200° 0 W/m² -
1788021892 28.33° C 83% 1011.4 hPa 0 mm 0.45 m/s, 201° 0 W/m² -
1788021831 28.33° C 83% 1011.5 hPa 0 mm 0.89 m/s, 198° 0 W/m² -
1788021769 28.33° C 83% 1011.2 hPa 0 mm 0.45 m/s, 205° 0 W/m² -

* Rain latest hour (hover to see other rain measurements)
** Current wind speed in m/s (hover to see current wind gust speed)